GFSNE_prec_snow_357.txt.gz
Snowfall_Accumulation
0.0 0.0 0.0 0.0 0.0 0.0 0.0 0.0 0.0 0.0 0.0 0.0 0.0 0.0 0.0 0.0 0.0 0.0 0.0 0.0 0.0 0.0 0.0 0.0 0.0 0.0 0.0 0.0 0.0 0.0 0.0 0.0 0.0 0.0 0.0 0.0 0.0 0.0
0.0 0.0 0.0 0.0 0.0 0.0 0.0 0.0 0.0 0.0 0.0 0.0 0.0 0.0 0.0 0.0 0.0 0.0 0.0 0.0 0.0 0.0 0.0 0.0 0.0 0.0 0.0 0.0 0.0 0.0 0.0 0.0 0.0 0.0 0.0 0.0 0.0 0.0
0.0 0.0 0.0 0.0 0.0 0.0 0.0 0.0 0.0 0.0 0.0 0.2 0.1 0.0 0.0 0.0 0.0 0.0 0.0 0.0 0.0 0.0 0.0 0.0 0.0 0.0 0.0 0.0 0.0 0.0 0.0 0.0 0.0 0.0 0.0 0.0 0.0 0.0
0.0 0.0 0.0 0.0 0.0 0.0 0.0 0.0 0.0 0.1 0.1 0.1 0.0 0.6 0.6 0.4 0.7 0.1 0.0 0.0 0.0 0.0 0.0 0.0 0.0 0.0 0.0 0.0 0.0 0.0 0.0 0.0 0.0 0.0 0.0 0.0 0.0 0.0
0.0 0.0 0.0 0.0 0.0 0.0 0.1 0.0 0.4 0.5 0.3 0.1 0.5 1.1 2.0 1.6 3.3 2.9 2.1 0.0 0.0 0.0 0.0 0.0 0.0 0.0 0.0 0.0 0.1 0.0 0.1 0.1 0.0 0.0 0.0 0.0 0.0 0.0
0.0 0.2 0.1 0.6 0.7 0.0 1.2 1.2 0.8 1.3 0.8 1.1 0.3 1.5 1.4 0.8 0.6 0.7 0.5 0.3 0.0 0.0 0.0 0.0 0.0 0.0 0.0 0.0 0.0 0.0 0.0 0.0 0.0 0.0 0.0 0.0 0.0 0.0
0.0 0.6 0.4 0.1 1.4 3.4 2.5 1.5 1.6 1.3 1.6 1.5 1.1 0.4 0.4 0.3 0.4 0.2 0.1 0.0 0.2 0.0 0.0 0.0 0.0 0.0 0.0 0.0 0.0 0.0 0.0 0.0 0.1 0.1 0.3 0.4 0.0 0.0
0.0 1.6 1.5 2.8 1.2 0.0 0.0 0.0 0.1 1.3 1.3 1.0 0.5 0.2 0.1 0.1 0.0 0.1 0.4 1.3 3.8 0.3 0.6 0.9 0.0 0.3 0.0 0.0 0.0 0.0 0.0 0.0 0.1 0.0 0.2 0.5 0.4 0.2
2.1 2.1 0.7 1.1 0.8 0.7 0.2 0.2 0.8 0.4 0.3 0.2 0.2 0.0 0.0 0.1 0.6 0.9 1.7 2.8 2.7 4.0 3.0 13.3 2.0 2.5 0.0 0.0 0.0 0.0 0.0 0.0 0.0 0.2 0.3 0.3 0.3 0.3
1.5 0.8 0.4 0.0 0.0 0.2 0.2 0.7 0.1 0.0 0.0 0.0 0.0 0.1 0.2 0.2 0.6 1.5 2.3 4.7 5.0 4.5 1.4 10.4 9.3 5.7 1.0 0.4 0.0 0.0 0.0 0.0 0.0 0.2 0.2 0.3 0.3 0.4
0.4 0.0 0.0 0.0 0.0 0.1 0.6 1.6 1.3 1.2 0.0 0.0 0.1 0.1 0.0 0.0 0.0 0.7 3.5 7.5 8.5 6.3 5.4 6.1 7.6 9.2 10.0 3.2 0.0 0.0 0.0 0.0 0.0 0.1 0.1 0.1 0.2 0.3
0.1 0.0 0.0 0.0 0.1 0.4 1.2 1.2 1.6 2.3 1.3 1.9 1.3 0.4 0.2 0.0 0.0 0.2 1.7 9.6 8.9 8.2 3.0 8.9 6.6 7.7 11.4 8.1 5.9 0.9 0.5 0.0 0.0 0.0 0.1 0.1 0.2 0.2
0.1 0.1 0.0 0.0 0.3 0.5 1.2 1.2 4.6 2.1 4.4 4.4 3.6 3.3 3.1 2.9 0.5 0.9 1.4 5.5 13.5 10.5 2.5 12.7 13.0 6.0 9.8 5.8 4.6 5.0 3.1 0.2 0.0 0.0 0.0 0.0 0.3 0.5
0.2 0.1 0.0 0.3 0.4 0.4 1.5 0.5 0.9 1.8 2.1 1.6 1.5 1.6 2.2 2.6 2.3 3.2 3.9 4.3 4.7 5.9 4.0 4.9 19.4 9.1 12.6 10.8 4.3 4.8 5.3 3.5 2.4 2.2 1.9 0.4 0.1 0.3
0.1 0.0 0.3 0.5 0.5 0.3 0.2 0.6 0.7 0.9 1.7 2.4 2.0 1.9 1.7 1.5 2.0 2.0 2.4 4.2 4.3 3.5 4.4 4.8 8.7 10.1 14.4 14.7 8.8 5.3 6.4 5.8 4.5 3.5 3.6 3.6 4.0 2.7
0.1 0.1 0.5 0.5 1.2 0.5 0.6 0.6 0.3 0.5 1.8 1.7 3.0 1.7 1.5 2.1 3.8 3.9 4.7 4.7 6.7 5.7 5.9 7.7 7.9 11.0 16.7 9.9 10.3 9.3 5.2 6.4 4.8 4.0 4.8 3.9 3.5 4.1
1.1 0.5 0.6 2.4 3.1 2.7 2.2 2.5 0.7 2.2 2.5 1.8 3.9 4.4 3.5 3.7 3.6 3.9 5.0 7.1 10.1 8.1 9.7 8.8 9.9 10.8 9.8 10.1 12.5 5.4 5.2 5.1 3.9 5.3 5.5 4.5 2.9 4.7
4.0 2.3 3.1 3.0 3.4 3.5 3.4 4.0 4.2 3.9 3.2 6.1 6.6 6.1 7.4 7.4 6.8 9.2 9.6 10.6 10.9 7.2 9.3 10.9 12.7 15.7 13.6 12.0 5.7 8.7 8.3 5.8 6.7 4.6 4.6 7.3 4.5 2.4
3.1 2.9 2.9 3.8 4.1 4.2 4.9 5.3 6.5 5.0 5.3 8.2 10.2 10.2 11.6 10.9 13.1 11.1 8.0 9.1 9.3 6.9 8.5 10.3 14.0 18.3 19.7 9.5 5.1 5.7 9.9 10.1 7.5 7.1 5.5 5.9 5.6 3.1
2.3 3.0 2.8 3.4 4.8 6.2 5.6 8.2 8.0 8.3 9.0 9.4 10.2 10.5 12.6 14.3 12.9 10.3 8.3 10.0 9.9 7.6 7.3 8.8 10.1 13.3 21.8 15.3 12.9 5.0 6.7 10.1 11.8 8.8 6.0 4.0 4.8 1.1
3.2 5.2 4.5 3.6 5.8 6.3 8.3 10.1 10.2 10.9 10.6 11.8 10.7 10.3 10.2 14.3 12.4 8.2 8.9 7.4 9.9 9.1 9.5 5.0 3.8 8.3 13.2 18.0 18.3 7.8 8.5 7.5 7.3 12.8 9.5 10.9 5.6 3.7
3.8 5.1 4.8 5.3 7.1 9.0 10.2 11.6 11.9 10.4 9.9 8.6 7.8 8.2 9.1 11.5 13.1 10.4 8.9 11.1 7.8 6.0 6.3 5.0 7.4 9.9 12.0 14.6 10.7 5.9 6.6 6.7 8.7 4.5 4.2 10.7 17.4 15.8
6.4 7.6 6.9 9.2 9.6 11.1 11.7 11.8 10.5 8.4 7.1 8.0 8.0 7.4 9.2 12.3 8.5 8.8 9.6 8.7 8.4 10.2 7.2 7.9 7.7 7.7 9.3 9.4 10.0 8.8 6.9 7.0 6.3 5.9 6.1 3.9 3.1 2.1

GFSNE_prec_snow_360.txt.gz
Snowfall_Accumulation
0.0 0.0 0.0 0.0 0.0 0.0 0.0 0.0 0.0 0.0 0.0 0.0 0.0 0.0 0.0 0.0 0.0 0.0 0.0 0.0 0.0 0.0 0.0 0.0 0.0 0.0 0.0 0.0 0.0 0.0 0.0 0.0 0.0 0.0 0.0 0.0 0.0 0.0
0.0 0.0 0.0 0.0 0.0 0.0 0.0 0.0 0.0 0.0 0.0 0.0 0.0 0.0 0.0 0.0 0.0 0.0 0.0 0.0 0.0 0.0 0.0 0.0 0.0 0.0 0.0 0.0 0.0 0.0 0.0 0.0 0.0 0.0 0.0 0.0 0.0 0.0
0.0 0.0 0.0 0.0 0.0 0.0 0.0 0.0 0.0 0.0 0.0 0.2 0.1 0.0 0.0 0.0 0.0 0.0 0.0 0.0 0.0 0.0 0.0 0.0 0.0 0.0 0.0 0.0 0.0 0.0 0.0 0.0 0.0 0.0 0.0 0.0 0.0 0.0
0.0 0.0 0.0 0.0 0.0 0.0 0.0 0.0 0.0 0.1 0.1 0.1 0.0 0.6 0.6 0.4 0.7 0.1 0.0 0.0 0.0 0.0 0.0 0.0 0.0 0.0 0.0 0.0 0.0 0.0 0.0 0.0 0.0 0.0 0.0 0.0 0.0 0.0
0.0 0.0 0.0 0.0 0.0 0.0 0.1 0.0 0.4 0.5 0.3 0.1 0.5 1.1 2.0 1.6 3.3 2.9 2.1 0.0 0.0 0.0 0.0 0.0 0.0 0.0 0.0 0.0 0.1 0.0 0.1 0.1 0.0 0.0 0.0 0.0 0.0 0.0
0.0 0.2 0.1 0.6 0.7 0.0 1.2 1.2 0.8 1.3 0.8 1.1 0.3 1.5 1.4 0.8 0.6 0.7 0.5 0.3 0.0 0.0 0.0 0.0 0.0 0.0 0.0 0.0 0.0 0.0 0.0 0.0 0.0 0.0 0.0 0.0 0.0 0.0
0.0 0.6 0.4 0.1 1.4 3.4 2.5 1.5 1.6 1.3 1.6 1.5 1.1 0.4 0.4 0.3 0.4 0.2 0.1 0.0 0.2 0.0 0.0 0.0 0.0 0.0 0.0 0.0 0.0 0.0 0.0 0.0 0.1 0.1 0.3 0.4 0.0 0.0
0.0 1.6 1.5 2.8 1.2 0.0 0.0 0.0 0.1 1.3 1.3 1.0 0.5 0.2 0.1 0.1 0.0 0.1 0.4 1.3 3.8 0.3 0.6 0.9 0.0 0.3 0.0 0.0 0.0 0.0 0.0 0.0 0.1 0.0 0.2 0.5 0.4 0.2
2.1 2.1 0.7 1.1 0.8 0.7 0.2 0.2 0.8 0.4 0.3 0.2 0.2 0.0 0.0 0.1 0.6 0.9 1.7 2.8 2.7 4.0 3.0 13.3 2.0 2.5 0.0 0.0 0.0 0.0 0.0 0.0 0.0 0.2 0.3 0.3 0.3 0.3
1.5 0.8 0.4 0.0 0.0 0.2 0.2 0.7 0.1 0.0 0.0 0.0 0.0 0.1 0.2 0.2 0.6 1.5 2.3 4.7 5.0 4.5 1.4 10.4 9.3 5.7 1.0 0.4 0.0 0.0 0.0 0.0 0.0 0.2 0.2 0.3 0.3 0.4
0.4 0.0 0.0 0.0 0.0 0.1 0.6 1.6 1.3 1.2 0.0 0.0 0.1 0.1 0.0 0.0 0.0 0.7 3.5 7.5 8.5 6.3 5.4 6.1 7.6 9.2 10.0 3.2 0.0 0.0 0.0 0.0 0.0 0.1 0.1 0.1 0.2 0.3
0.1 0.0 0.0 0.0 0.1 0.4 1.2 1.2 1.6 2.3 1.3 1.9 1.3 0.4 0.2 0.0 0.0 0.2 1.7 9.6 8.9 8.2 3.0 8.9 6.6 7.7 11.4 8.1 5.9 0.9 0.5 0.0 0.0 0.0 0.1 0.1 0.2 0.2
0.1 0.1 0.0 0.0 0.3 0.5 1.2 1.2 4.6 2.1 4.4 4.4 3.6 3.3 3.1 2.9 0.5 0.9 1.4 5.5 13.5 10.5 2.5 12.7 13.0 6.0 9.8 5.8 4.6 5.0 3.1 0.2 0.0 0.0 0.0 0.0 0.3 0.5
0.2 0.1 0.0 0.3 0.4 0.4 1.5 0.5 0.9 1.8 2.1 1.6 1.5 1.6 2.2 2.6 2.3 3.2 3.9 4.3 4.7 5.9 4.0 4.9 19.5 9.1 12.6 10.8 4.4 4.8 5.3 3.5 2.4 2.2 1.9 0.4 0.1 0.3
0.1 0.0 0.3 0.5 0.5 0.3 0.2 0.6 0.7 0.9 1.7 2.4 2.0 1.9 1.7 1.5 2.0 2.0 2.4 4.2 4.3 3.5 4.4 4.8 8.7 10.1 14.5 14.8 8.8 5.3 6.5 5.8 4.5 3.5 3.6 3.6 4.0 2.7
0.1 0.1 0.5 0.5 1.2 0.5 0.6 0.6 0.3 0.5 1.8 1.7 3.0 1.7 1.5 2.1 3.8 3.9 4.7 4.7 6.7 5.7 5.9 7.7 7.9 11.0 16.8 10.0 10.3 9.3 5.2 6.4 4.8 4.0 4.8 3.9 3.5 4.1
1.1 0.5 0.6 2.4 3.1 2.7 2.2 2.5 0.7 2.2 2.5 1.8 3.9 4.4 3.5 3.7 3.6 3.9 5.0 7.1 10.1 8.1 9.7 8.8 9.9 10.8 9.8 10.1 12.5 5.4 5.2 5.1 3.9 5.3 5.9 4.5 2.9 4.7
4.0 2.3 3.1 3.0 3.4 3.5 3.4 4.0 4.2 3.9 3.2 6.1 6.6 6.1 7.4 7.4 6.8 9.2 9.6 10.6 10.9 7.2 9.3 10.9 12.7 15.7 13.6 12.0 5.7 8.7 8.3 5.8 6.7 4.6 4.9 7.5 4.5 2.4
3.1 2.9 2.9 3.8 4.1 4.2 4.9 5.3 6.5 5.0 5.3 8.2 10.2 10.2 11.6 10.9 13.1 11.1 8.0 9.1 9.3 6.9 8.5 10.3 14.0 18.3 19.9 9.5 5.1 5.7 9.9 10.1 7.5 7.1 5.5 6.1 5.6 3.1
2.3 3.0 2.8 3.4 4.8 6.2 5.6 8.2 8.0 8.3 9.0 9.4 10.2 10.5 12.6 14.3 12.9 10.3 8.3 10.0 10.0 7.6 7.3 8.8 10.1 13.3 22.1 15.5 13.2 5.0 6.7 10.1 11.8 8.9 6.0 4.2 4.8 1.1
3.2 5.2 4.5 3.6 5.8 6.3 8.3 10.1 10.2 10.9 10.6 11.8 10.7 10.3 10.2 14.3 12.4 8.2 9.0 7.4 9.9 9.1 9.5 5.0 3.8 8.3 13.2 18.3 18.6 7.8 8.5 7.5 7.3 13.0 9.7 11.2 5.8 3.8
3.8 5.1 4.8 5.3 7.1 9.0 10.2 11.6 11.9 10.4 9.9 8.6 7.8 8.2 9.1 11.5 13.1 10.4 8.9 11.1 7.8 6.0 6.3 5.0 7.4 9.9 12.0 14.6 10.8 5.9 6.6 6.7 8.7 4.5 4.5 11.0 17.5 15.9
6.4 7.6 6.9 9.2 9.6 11.1 11.7 11.8 10.5 8.4 7.1 8.0 8.0 7.4 9.2 12.4 8.5 8.8 9.6 8.8 8.4 10.2 7.2 7.9 7.7 7.7 9.3 9.4 10.2 8.9 6.9 7.0 6.3 5.9 6.1 4.1 3.3 2.1

GFSNE_prec_snow_366.txt.gz
Snowfall_Accumulation
0.0 0.0 0.0 0.0 0.0 0.0 0.0 0.0 0.0 0.0 0.0 0.0 0.0 0.0 0.0 0.0 0.0 0.0 0.0 0.0 0.0 0.0 0.0 0.0 0.0 0.0 0.0 0.0 0.0 0.0 0.0 0.0 0.0 0.0 0.0 0.0 0.0 0.0
0.0 0.0 0.0 0.0 0.0 0.0 0.0 0.0 0.0 0.0 0.0 0.0 0.0 0.0 0.0 0.0 0.0 0.0 0.0 0.0 0.0 0.0 0.0 0.0 0.0 0.0 0.0 0.0 0.0 0.0 0.0 0.0 0.0 0.0 0.0 0.0 0.0 0.0
0.0 0.0 0.0 0.0 0.0 0.0 0.0 0.0 0.0 0.0 0.0 0.2 0.1 0.0 0.0 0.0 0.0 0.0 0.0 0.0 0.0 0.0 0.0 0.0 0.0 0.0 0.0 0.0 0.0 0.0 0.0 0.0 0.0 0.0 0.0 0.0 0.0 0.0
0.0 0.0 0.0 0.0 0.0 0.0 0.0 0.0 0.0 0.1 0.1 0.1 0.0 0.6 0.6 0.4 0.7 0.1 0.0 0.0 0.0 0.0 0.0 0.0 0.0 0.0 0.0 0.0 0.0 0.0 0.0 0.0 0.0 0.0 0.0 0.0 0.0 0.0
0.0 0.0 0.0 0.0 0.0 0.0 0.1 0.0 0.4 0.5 0.3 0.1 0.5 1.1 2.0 1.6 3.3 2.9 2.1 0.0 0.0 0.0 0.0 0.0 0.0 0.0 0.0 0.0 0.1 0.0 0.1 0.1 0.0 0.0 0.0 0.0 0.0 0.0
0.0 0.2 0.1 0.6 0.7 0.0 1.2 1.2 0.8 1.3 0.8 1.1 0.3 1.5 1.4 0.8 0.6 0.7 0.5 0.3 0.0 0.0 0.0 0.0 0.0 0.0 0.0 0.0 0.0 0.0 0.0 0.0 0.0 0.0 0.0 0.0 0.0 0.0
0.0 0.6 0.4 0.1 1.4 3.4 2.5 1.5 1.6 1.3 1.6 1.5 1.1 0.4 0.4 0.3 0.4 0.2 0.1 0.0 0.2 0.0 0.0 0.0 0.0 0.0 0.0 0.0 0.0 0.0 0.0 0.0 0.1 0.1 0.3 0.4 0.0 0.0
0.0 1.6 1.5 2.8 1.2 0.0 0.0 0.0 0.1 1.3 1.3 1.0 0.5 0.2 0.1 0.1 0.0 0.1 0.4 1.3 3.8 0.3 0.6 0.9 0.0 0.3 0.0 0.0 0.0 0.0 0.0 0.0 0.1 0.0 0.2 0.5 0.4 0.2
2.1 2.1 0.7 1.1 0.8 0.7 0.2 0.2 0.8 0.4 0.3 0.2 0.2 0.0 0.0 0.1 0.6 0.9 1.7 2.8 2.7 4.0 3.0 13.3 2.0 2.5 0.0 0.0 0.0 0.0 0.0 0.0 0.0 0.2 0.3 0.3 0.3 0.3
1.5 0.8 0.4 0.0 0.0 0.2 0.2 0.7 0.1 0.0 0.0 0.0 0.0 0.1 0.2 0.2 0.6 1.5 2.3 4.7 5.0 4.5 1.4 10.4 9.3 5.7 1.0 0.4 0.0 0.0 0.0 0.0 0.0 0.2 0.2 0.3 0.3 0.4
0.4 0.0 0.0 0.0 0.0 0.1 0.6 1.6 1.3 1.2 0.0 0.0 0.1 0.1 0.0 0.0 0.0 0.7 3.5 7.5 8.5 6.3 5.4 6.1 7.6 9.2 10.0 3.2 0.0 0.0 0.0 0.0 0.0 0.1 0.1 0.1 0.2 0.3
0.1 0.0 0.0 0.0 0.1 0.4 1.2 1.2 1.6 2.3 1.3 1.9 1.3 0.4 0.2 0.0 0.0 0.2 1.7 9.6 8.9 8.2 3.0 8.9 6.6 7.7 11.4 8.1 5.9 0.9 0.5 0.0 0.0 0.0 0.1 0.1 0.2 0.2
0.1 0.1 0.0 0.0 0.3 0.5 1.2 1.2 4.6 2.1 4.4 4.4 3.6 3.3 3.1 2.9 0.5 0.9 1.4 5.5 13.5 10.5 2.5 12.8 13.0 6.0 9.9 5.8 4.6 5.0 3.1 0.2 0.0 0.0 0.0 0.0 0.3 0.5
0.5 0.2 0.0 0.3 0.4 0.4 1.5 0.5 0.9 1.8 2.1 1.6 1.5 1.6 2.2 2.6 2.3 3.2 3.9 4.3 4.7 5.9 4.0 4.9 19.5 9.3 12.9 11.0 4.4 4.8 5.3 3.5 2.4 2.2 1.9 0.4 0.1 0.3
0.1 0.0 0.3 0.5 0.5 0.3 0.2 0.6 0.7 0.9 1.7 2.4 2.0 1.9 1.7 1.5 2.0 2.0 2.4 4.2 4.3 3.5 4.4 4.8 8.7 10.2 14.6 15.1 9.0 5.4 6.5 5.8 4.5 3.5 3.6 3.6 4.0 2.7
0.1 0.1 0.5 0.5 1.2 0.5 0.6 0.6 0.3 0.5 1.8 1.7 3.0 1.7 1.5 2.1 3.8 3.9 4.7 4.7 6.7 5.7 5.9 7.7 7.9 11.1 16.8 10.0 10.3 9.3 5.2 6.4 4.8 4.0 4.8 3.9 3.5 4.1
1.1 0.5 0.6 2.4 3.1 2.7 2.2 2.5 0.7 2.2 2.5 1.8 3.9 4.4 3.5 3.7 3.6 3.9 5.0 7.1 10.1 8.1 9.7 8.8 9.9 10.8 9.8 10.1 12.5 5.4 5.2 5.2 3.9 5.3 5.9 4.5 2.9 4.7
4.0 2.3 3.1 3.0 3.4 3.5 3.4 4.0 4.2 3.9 3.2 6.1 6.6 6.1 7.4 7.4 6.8 9.2 9.6 10.6 10.9 7.2 9.3 10.9 12.7 15.7 13.6 12.0 5.7 8.7 8.3 5.9 6.7 4.7 4.9 7.6 4.6 2.4
3.1 2.9 2.9 3.8 4.1 4.2 4.9 5.3 6.5 5.0 5.3 8.2 10.2 10.2 11.6 10.9 13.1 11.1 8.0 9.1 9.3 6.9 8.5 10.3 14.0 18.3 20.0 9.6 5.1 5.7 9.9 10.1 7.5 7.1 5.6 6.2 5.8 3.1
2.3 3.0 2.8 3.4 4.8 6.2 5.6 8.2 8.0 8.3 9.0 9.4 10.2 10.5 12.6 14.3 12.9 10.3 8.3 10.0 10.0 7.6 7.3 8.8 10.1 13.3 22.4 15.9 13.6 5.0 6.7 10.1 11.8 9.1 6.1 4.3 4.8 1.1
3.2 5.2 4.5 3.6 5.8 6.3 8.3 10.1 10.2 10.9 10.6 11.8 10.7 10.3 10.2 14.3 12.4 8.2 9.0 7.4 9.9 9.1 9.6 5.0 3.8 8.3 13.2 18.5 18.7 7.8 8.5 7.5 7.3 13.2 10.0 11.6 5.9 3.9
3.8 5.1 4.8 5.3 7.1 9.0 10.2 11.6 11.9 10.4 9.9 8.6 7.8 8.2 9.1 11.5 13.1 10.4 8.9 11.2 7.8 6.0 6.3 5.0 7.4 9.9 12.0 14.7 10.9 6.0 6.6 6.7 8.7 4.5 4.5 11.0 17.9 16.2
6.4 7.6 6.9 9.2 9.6 11.1 11.7 11.8 10.5 8.4 7.1 8.0 8.0 7.4 9.2 12.4 8.5 8.8 9.6 8.8 8.5 10.3 7.2 7.9 7.7 7.7 9.3 9.4 10.2 9.0 6.9 7.0 6.3 5.9 6.1 4.1 3.5 2.2

GFSNE_prec_snow_372.txt.gz
Snowfall_Accumulation
0.0 0.0 0.0 0.0 0.0 0.0 0.0 0.0 0.0 0.0 0.0 0.0 0.0 0.0 0.0 0.0 0.0 0.0 0.0 0.0 0.0 0.0 0.0 0.0 0.0 0.0 0.0 0.0 0.0 0.0 0.0 0.0 0.0 0.0 0.0 0.0 0.0 0.0
0.0 0.0 0.0 0.0 0.0 0.0 0.0 0.0 0.0 0.0 0.0 0.0 0.0 0.0 0.0 0.0 0.0 0.0 0.0 0.0 0.0 0.0 0.0 0.0 0.0 0.0 0.0 0.0 0.0 0.0 0.0 0.0 0.0 0.0 0.0 0.0 0.0 0.0
0.0 0.0 0.0 0.0 0.0 0.0 0.0 0.0 0.0 0.0 0.0 0.2 0.1 0.0 0.0 0.0 0.0 0.0 0.0 0.0 0.0 0.0 0.0 0.0 0.0 0.0 0.0 0.0 0.0 0.0 0.0 0.0 0.0 0.0 0.0 0.0 0.0 0.0
0.0 0.0 0.0 0.0 0.0 0.0 0.0 0.0 0.0 0.1 0.1 0.1 0.0 0.6 0.6 0.4 0.7 0.1 0.0 0.0 0.0 0.0 0.0 0.0 0.0 0.0 0.0 0.0 0.0 0.0 0.0 0.0 0.0 0.0 0.0 0.0 0.0 0.0
0.0 0.0 0.0 0.0 0.0 0.0 0.1 0.0 0.4 0.5 0.3 0.1 0.5 1.1 2.0 1.6 3.3 2.9 2.1 0.0 0.0 0.0 0.0 0.0 0.0 0.0 0.0 0.0 0.1 0.0 0.1 0.1 0.0 0.0 0.0 0.0 0.0 0.0
0.0 0.2 0.1 0.6 0.7 0.0 1.2 1.2 0.8 1.3 0.8 1.1 0.3 1.5 1.4 0.8 0.6 0.7 0.5 0.3 0.0 0.0 0.0 0.0 0.0 0.0 0.0 0.0 0.0 0.0 0.0 0.0 0.0 0.0 0.0 0.0 0.0 0.0
0.0 0.6 0.4 0.1 1.4 3.4 2.5 1.5 1.6 1.3 1.6 1.5 1.1 0.4 0.4 0.3 0.4 0.2 0.1 0.0 0.2 0.0 0.0 0.0 0.0 0.0 0.0 0.0 0.0 0.0 0.0 0.0 0.1 0.1 0.3 0.4 0.0 0.0
0.0 1.6 1.5 2.8 1.2 0.0 0.0 0.0 0.1 1.3 1.3 1.0 0.5 0.2 0.1 0.1 0.0 0.1 0.4 1.3 3.8 0.3 0.6 0.9 0.0 0.3 0.0 0.0 0.0 0.0 0.0 0.0 0.1 0.0 0.2 0.5 0.4 0.2
2.1 2.1 0.7 1.1 0.8 0.7 0.2 0.2 0.8 0.4 0.3 0.2 0.2 0.0 0.0 0.1 0.6 0.9 1.7 2.8 2.7 4.0 3.0 13.3 2.0 2.5 0.0 0.0 0.0 0.0 0.0 0.0 0.0 0.2 0.3 0.3 0.3 0.3
1.5 0.8 0.4 0.0 0.0 0.2 0.2 0.7 0.1 0.0 0.0 0.0 0.0 0.1 0.2 0.2 0.6 1.5 2.3 4.7 5.0 4.5 1.4 10.4 9.3 5.7 1.0 0.4 0.0 0.0 0.0 0.0 0.0 0.2 0.2 0.3 0.3 0.4
0.4 0.0 0.0 0.0 0.0 0.1 0.6 1.6 1.3 1.2 0.0 0.0 0.1 0.1 0.0 0.0 0.0 0.7 3.5 7.5 8.5 6.3 5.4 6.1 7.6 9.2 10.0 3.2 0.0 0.0 0.0 0.0 0.0 0.1 0.1 0.1 0.2 0.3
0.1 0.0 0.0 0.0 0.1 0.4 1.2 1.2 1.6 2.3 1.3 1.9 1.3 0.4 0.2 0.0 0.0 0.2 1.7 9.6 8.9 8.2 3.0 8.9 6.6 7.7 11.4 8.1 5.9 0.9 0.5 0.0 0.0 0.0 0.1 0.1 0.2 0.2
0.1 0.1 0.0 0.0 0.3 0.5 1.2 1.2 4.6 2.1 4.4 4.4 3.6 3.3 3.1 2.9 0.5 0.9 1.4 5.5 13.5 10.5 2.5 12.8 13.0 6.0 9.9 5.8 4.6 5.0 3.1 0.2 0.0 0.0 0.0 0.0 0.3 0.5
0.5 0.2 0.0 0.3 0.4 0.4 1.5 0.5 0.9 1.8 2.1 1.6 1.5 1.6 2.2 2.6 2.3 3.2 3.9 4.3 4.7 5.9 4.0 4.9 19.5 9.3 12.9 11.0 4.4 4.8 5.3 3.5 2.4 2.2 1.9 0.4 0.1 0.3
0.1 0.0 0.3 0.5 0.5 0.3 0.2 0.6 0.7 0.9 1.7 2.4 2.0 1.9 1.7 1.5 2.0 2.0 2.4 4.2 4.3 3.5 4.4 4.8 8.7 10.2 14.6 15.1 9.0 5.4 6.5 5.8 4.5 3.5 3.6 3.6 4.0 2.7
0.1 0.1 0.5 0.5 1.2 0.5 0.6 0.6 0.3 0.5 1.8 1.7 3.0 1.7 1.5 2.1 3.8 3.9 4.7 4.7 6.7 5.7 5.9 7.7 7.9 11.1 16.8 10.0 10.3 9.3 5.2 6.5 4.8 4.0 4.8 3.9 3.5 4.1
1.1 0.5 0.6 2.4 3.1 2.7 2.2 2.5 0.7 2.2 2.5 1.8 3.9 4.4 3.5 3.7 3.6 3.9 5.0 7.1 10.1 8.1 9.7 8.8 9.9 10.8 9.8 10.1 12.5 5.4 5.2 5.2 3.9 5.3 5.9 4.5 2.9 4.7
4.0 2.3 3.1 3.0 3.4 3.5 3.4 4.0 4.2 3.9 3.2 6.1 6.6 6.1 7.4 7.4 6.8 9.2 9.6 10.6 10.9 7.2 9.3 10.9 12.7 15.7 13.6 12.0 5.7 8.7 8.3 5.9 6.7 4.7 4.9 7.8 4.6 2.4
3.1 2.9 2.9 3.8 4.1 4.2 4.9 5.3 6.5 5.0 5.3 8.2 10.2 10.2 11.6 10.9 13.1 11.1 8.0 9.1 9.3 6.9 8.5 10.3 14.0 18.3 20.2 9.6 5.1 5.7 9.9 10.1 7.5 7.2 5.6 6.2 5.9 3.1
2.3 3.0 2.8 3.4 4.8 6.2 5.6 8.2 8.0 8.3 9.0 9.4 10.2 10.5 12.6 14.3 12.9 10.3 8.3 10.0 10.0 7.6 7.3 8.8 10.1 13.3 22.6 16.1 13.8 5.0 6.7 10.1 11.8 9.1 6.2 4.3 4.8 1.1
3.2 5.2 4.5 3.6 5.8 6.3 8.3 10.1 10.2 10.9 10.6 11.8 10.7 10.3 10.2 14.3 12.4 8.2 9.0 7.4 9.9 9.1 9.6 5.0 3.8 8.3 13.2 18.5 18.8 7.8 8.5 7.5 7.3 13.2 10.0 11.9 5.9 3.9
3.8 5.1 4.8 5.3 7.1 9.0 10.2 11.6 11.9 10.4 9.9 8.6 7.8 8.2 9.1 11.5 13.1 10.4 8.9 11.2 7.8 6.0 6.3 5.0 7.4 9.9 12.0 14.7 11.0 6.0 6.6 6.7 8.7 4.5 4.5 11.1 18.5 17.0
6.4 7.6 6.9 9.2 9.6 11.1 11.7 11.8 10.5 8.4 7.1 8.0 8.0 7.4 9.2 12.4 8.5 8.8 9.6 8.8 8.5 10.3 7.2 8.0 7.7 7.7 9.3 9.4 10.3 9.0 6.9 7.0 6.3 5.9 6.1 4.1 3.5 2.2

GFSNE_prec_snow_375.txt.gz
Snowfall_Accumulation
0.0 0.0 0.0 0.0 0.0 0.0 0.0 0.0 0.0 0.0 0.0 0.0 0.0 0.0 0.0 0.0 0.0 0.0 0.0 0.0 0.0 0.0 0.0 0.0 0.0 0.0 0.0 0.0 0.0 0.0 0.0 0.0 0.0 0.0 0.0 0.0 0.0 0.0
0.0 0.0 0.0 0.0 0.0 0.0 0.0 0.0 0.0 0.0 0.0 0.0 0.0 0.0 0.0 0.0 0.0 0.0 0.0 0.0 0.0 0.0 0.0 0.0 0.0 0.0 0.0 0.0 0.0 0.0 0.0 0.0 0.0 0.0 0.0 0.0 0.0 0.0
0.0 0.0 0.0 0.0 0.0 0.0 0.0 0.0 0.0 0.0 0.0 0.2 0.1 0.0 0.0 0.0 0.0 0.0 0.0 0.0 0.0 0.0 0.0 0.0 0.0 0.0 0.0 0.0 0.0 0.0 0.0 0.0 0.0 0.0 0.0 0.0 0.0 0.0
0.0 0.0 0.0 0.0 0.0 0.0 0.0 0.0 0.0 0.1 0.1 0.1 0.0 0.6 0.6 0.4 0.7 0.1 0.0 0.0 0.0 0.0 0.0 0.0 0.0 0.0 0.0 0.0 0.0 0.0 0.0 0.0 0.0 0.0 0.0 0.0 0.0 0.0
0.0 0.0 0.0 0.0 0.0 0.0 0.1 0.0 0.4 0.5 0.3 0.1 0.5 1.1 2.0 1.6 3.3 2.9 2.1 0.0 0.0 0.0 0.0 0.0 0.0 0.0 0.0 0.0 0.1 0.0 0.1 0.1 0.0 0.0 0.0 0.0 0.0 0.0
0.0 0.2 0.1 0.6 0.7 0.0 1.2 1.2 0.8 1.3 0.8 1.1 0.3 1.5 1.4 0.8 0.6 0.7 0.5 0.3 0.0 0.0 0.0 0.0 0.0 0.0 0.0 0.0 0.0 0.0 0.0 0.0 0.0 0.0 0.0 0.0 0.0 0.0
0.0 0.6 0.4 0.1 1.4 3.4 2.5 1.5 1.6 1.3 1.6 1.5 1.1 0.4 0.4 0.3 0.4 0.2 0.1 0.0 0.2 0.0 0.0 0.0 0.0 0.0 0.0 0.0 0.0 0.0 0.0 0.0 0.1 0.1 0.3 0.4 0.0 0.0
0.0 1.6 1.5 2.8 1.2 0.0 0.0 0.0 0.1 1.3 1.3 1.0 0.5 0.2 0.1 0.1 0.0 0.1 0.4 1.3 3.8 0.3 0.6 0.9 0.0 0.3 0.0 0.0 0.0 0.0 0.0 0.0 0.1 0.0 0.2 0.5 0.4 0.2
2.1 2.1 0.7 1.1 0.8 0.7 0.2 0.2 0.8 0.4 0.3 0.2 0.2 0.0 0.0 0.1 0.6 0.9 1.7 2.8 2.7 4.0 3.0 13.3 2.0 2.5 0.0 0.0 0.0 0.0 0.0 0.0 0.0 0.2 0.3 0.3 0.3 0.3
1.5 0.8 0.4 0.0 0.0 0.2 0.2 0.7 0.1 0.0 0.0 0.0 0.0 0.1 0.2 0.2 0.6 1.5 2.3 4.7 5.0 4.5 1.4 10.4 9.3 5.7 1.0 0.4 0.0 0.0 0.0 0.0 0.0 0.2 0.2 0.3 0.3 0.4
0.4 0.0 0.0 0.0 0.0 0.1 0.6 1.6 1.3 1.2 0.0 0.0 0.1 0.1 0.0 0.0 0.0 0.7 3.5 7.5 8.5 6.3 5.4 6.1 7.6 9.2 10.0 3.2 0.0 0.0 0.0 0.0 0.0 0.1 0.1 0.1 0.2 0.3
0.1 0.0 0.0 0.0 0.1 0.4 1.2 1.2 1.6 2.3 1.3 1.9 1.3 0.4 0.2 0.0 0.0 0.2 1.7 9.6 8.9 8.2 3.0 8.9 6.6 7.7 11.4 8.1 5.9 0.9 0.5 0.0 0.0 0.0 0.1 0.1 0.2 0.2
0.1 0.1 0.0 0.0 0.3 0.5 1.2 1.2 4.6 2.1 4.4 4.4 3.6 3.3 3.1 2.9 0.5 0.9 1.4 5.5 13.5 10.5 2.5 12.8 13.0 6.0 9.9 5.8 4.6 5.0 3.1 0.2 0.0 0.0 0.0 0.0 0.3 0.5
0.5 0.2 0.0 0.3 0.4 0.4 1.5 0.5 0.9 1.8 2.1 1.6 1.5 1.6 2.2 2.6 2.3 3.2 3.9 4.3 4.7 5.9 4.0 4.9 19.5 9.3 12.9 11.0 4.4 4.8 5.3 3.5 2.4 2.2 1.9 0.4 0.1 0.3
0.1 0.0 0.3 0.5 0.5 0.3 0.2 0.6 0.7 0.9 1.7 2.4 2.0 1.9 1.7 1.5 2.0 2.0 2.4 4.2 4.3 3.5 4.4 4.8 8.7 10.2 14.6 15.1 9.0 5.4 6.5 5.8 4.5 3.5 3.6 3.6 4.0 2.7
0.1 0.1 0.5 0.5 1.2 0.5 0.6 0.6 0.3 0.5 1.8 1.7 3.0 1.7 1.5 2.1 3.8 3.9 4.7 4.7 6.7 5.7 5.9 7.7 7.9 11.1 16.8 10.0 10.3 9.3 5.2 6.5 4.8 4.0 4.8 3.9 3.5 4.1
1.1 0.5 0.6 2.4 3.1 2.7 2.2 2.5 0.7 2.2 2.5 1.8 3.9 4.4 3.5 3.7 3.6 3.9 5.0 7.1 10.1 8.1 9.7 8.8 9.9 10.8 9.8 10.1 12.5 5.4 5.2 5.2 3.9 5.3 5.9 4.5 2.9 4.7
4.5 2.5 3.1 3.0 3.4 3.5 3.4 4.0 4.2 3.9 3.2 6.1 6.6 6.1 7.4 7.4 6.8 9.2 9.6 10.6 10.9 7.2 9.3 10.9 12.7 15.7 13.6 12.0 5.7 8.7 8.3 5.9 6.7 4.7 4.9 7.8 4.6 2.4
3.3 3.0 3.0 3.8 4.1 4.2 4.9 5.3 6.5 5.0 5.3 8.2 10.2 10.2 11.6 10.9 13.1 11.1 8.0 9.1 9.3 6.9 8.5 10.3 14.0 18.3 20.2 9.6 5.1 5.7 9.9 10.1 7.5 7.2 5.6 6.2 5.9 3.1
2.4 3.0 2.8 3.4 4.8 6.2 5.6 8.2 8.0 8.3 9.0 9.4 10.2 10.5 12.6 14.3 12.9 10.3 8.3 10.0 10.0 7.6 7.3 8.8 10.1 13.3 22.7 16.2 13.9 5.0 6.7 10.1 11.8 9.1 6.2 4.3 4.8 1.1
3.2 5.2 4.5 3.6 5.8 6.3 8.3 10.1 10.2 10.9 10.6 11.8 10.7 10.3 10.2 14.3 12.4 8.2 9.0 7.4 9.9 9.1 9.6 5.0 3.8 8.3 13.2 18.5 18.8 7.8 8.5 7.5 7.3 13.2 10.0 11.9 6.0 3.9
3.8 5.1 4.8 5.3 7.1 9.0 10.2 11.6 11.9 10.4 9.9 8.6 7.8 8.2 9.1 11.5 13.1 10.4 8.9 11.2 7.8 6.0 6.3 5.0 7.4 9.9 12.0 14.7 11.0 6.0 6.6 6.7 8.7 4.5 4.5 11.1 18.6 17.3
6.4 7.6 6.9 9.2 9.6 11.1 11.7 11.8 10.5 8.4 7.1 8.0 8.0 7.4 9.2 12.4 8.5 8.8 9.6 8.8 8.5 10.3 7.2 8.0 7.7 7.7 9.3 9.4 10.3 9.0 6.9 7.0 6.3 5.9 6.1 4.1 3.5 2.2

GFSNE_prec_snow_381.txt.gz
Snowfall_Accumulation
0.0 0.0 0.0 0.0 0.0 0.0 0.0 0.0 0.0 0.0 0.0 0.0 0.0 0.0 0.0 0.0 0.0 0.0 0.0 0.0 0.0 0.0 0.0 0.0 0.0 0.0 0.0 0.0 0.0 0.0 0.0 0.0 0.0 0.0 0.0 0.0 0.0 0.0
0.0 0.0 0.0 0.0 0.0 0.0 0.0 0.0 0.0 0.0 0.0 0.0 0.0 0.0 0.0 0.0 0.0 0.0 0.0 0.0 0.0 0.0 0.0 0.0 0.0 0.0 0.0 0.0 0.0 0.0 0.0 0.0 0.0 0.0 0.0 0.0 0.0 0.0
0.0 0.0 0.0 0.0 0.0 0.0 0.0 0.0 0.0 0.0 0.0 0.2 0.1 0.0 0.0 0.0 0.0 0.0 0.0 0.0 0.0 0.0 0.0 0.0 0.0 0.0 0.0 0.0 0.0 0.0 0.0 0.0 0.0 0.0 0.0 0.0 0.0 0.0
0.0 0.0 0.0 0.0 0.0 0.0 0.0 0.0 0.0 0.1 0.1 0.1 0.0 0.6 0.6 0.4 0.7 0.1 0.0 0.0 0.0 0.0 0.0 0.0 0.0 0.0 0.0 0.0 0.0 0.0 0.0 0.0 0.0 0.0 0.0 0.0 0.0 0.0
0.0 0.0 0.0 0.0 0.0 0.0 0.1 0.0 0.4 0.5 0.3 0.1 0.5 1.1 2.0 1.6 3.3 2.9 2.1 0.0 0.0 0.0 0.0 0.0 0.0 0.0 0.0 0.0 0.1 0.0 0.1 0.1 0.0 0.0 0.0 0.0 0.0 0.0
0.0 0.2 0.1 0.6 0.7 0.0 1.2 1.2 0.8 1.3 0.8 1.1 0.3 1.5 1.4 0.8 0.6 0.7 0.5 0.3 0.0 0.0 0.0 0.0 0.0 0.0 0.0 0.0 0.0 0.0 0.0 0.0 0.0 0.0 0.0 0.0 0.0 0.0
0.0 0.6 0.4 0.1 1.4 3.4 2.5 1.5 1.6 1.3 1.6 1.5 1.1 0.4 0.4 0.3 0.4 0.2 0.1 0.0 0.2 0.0 0.0 0.0 0.0 0.0 0.0 0.0 0.0 0.0 0.0 0.0 0.1 0.1 0.3 0.4 0.0 0.0
0.0 1.6 1.5 2.8 1.2 0.0 0.0 0.0 0.1 1.3 1.3 1.0 0.5 0.2 0.1 0.1 0.0 0.1 0.4 1.3 3.8 0.3 0.6 0.9 0.0 0.3 0.0 0.0 0.0 0.0 0.0 0.0 0.1 0.0 0.2 0.5 0.4 0.2
2.1 2.1 0.7 1.1 0.8 0.7 0.2 0.2 0.8 0.4 0.3 0.2 0.2 0.0 0.0 0.1 0.6 0.9 1.7 2.8 2.7 4.0 3.0 13.3 2.0 2.5 0.0 0.0 0.0 0.0 0.0 0.0 0.0 0.2 0.3 0.3 0.3 0.3
1.5 0.8 0.4 0.0 0.0 0.2 0.2 0.7 0.1 0.0 0.0 0.0 0.0 0.1 0.2 0.2 0.6 1.5 2.3 4.7 5.0 4.5 1.4 10.4 9.3 5.7 1.0 0.4 0.0 0.0 0.0 0.0 0.0 0.2 0.2 0.3 0.3 0.4
0.4 0.0 0.0 0.0 0.0 0.1 0.6 1.6 1.3 1.2 0.0 0.0 0.1 0.1 0.0 0.0 0.0 0.7 3.5 7.5 8.5 6.3 5.4 6.1 7.6 9.2 10.0 3.2 0.0 0.0 0.0 0.0 0.0 0.1 0.1 0.1 0.2 0.3
0.1 0.0 0.0 0.0 0.1 0.4 1.2 1.2 1.6 2.3 1.3 1.9 1.3 0.4 0.2 0.0 0.0 0.2 1.7 9.6 9.1 8.3 3.0 8.9 6.6 7.7 11.4 8.1 5.9 0.9 0.5 0.0 0.0 0.0 0.1 0.1 0.2 0.2
0.1 0.1 0.0 0.0 0.3 0.5 1.2 1.2 4.6 2.1 4.4 4.4 3.6 3.3 3.1 3.0 0.5 0.9 1.6 5.5 13.5 10.5 2.5 12.8 13.0 6.0 9.9 5.8 4.6 5.0 3.1 0.2 0.0 0.0 0.0 0.0 0.3 0.5
0.5 0.2 0.0 0.3 0.4 0.4 1.5 0.5 0.9 1.8 2.1 1.6 2.1 1.9 3.1 2.6 2.3 3.2 3.9 4.3 4.7 5.9 4.0 4.9 19.5 9.3 12.9 11.0 4.4 4.8 5.3 3.5 2.4 2.2 1.9 0.4 0.1 0.3
0.1 0.0 0.3 0.5 0.5 0.3 0.2 0.6 0.7 1.7 2.1 2.7 2.0 1.9 1.7 1.5 2.0 2.0 2.4 4.2 4.3 3.5 4.4 4.8 8.7 10.2 14.6 15.1 9.0 5.4 6.5 5.8 4.5 3.5 3.6 3.6 4.0 2.7
0.1 0.1 0.5 0.5 1.2 0.5 1.5 1.0 0.5 0.5 1.8 1.8 3.0 1.7 1.5 2.1 3.8 3.9 4.7 4.7 6.7 5.7 5.9 7.7 7.9 11.1 16.8 10.0 10.3 9.3 5.2 6.5 4.8 4.0 4.8 3.9 3.5 4.1
1.1 0.5 0.6 2.4 3.1 2.9 2.2 2.5 0.8 2.2 2.5 1.8 3.9 4.4 3.5 3.7 3.6 3.9 5.0 7.1 10.1 8.1 9.7 8.8 9.9 10.8 9.8 10.1 12.5 5.4 5.2 5.2 3.9 5.3 5.9 4.5 2.9 4.7
4.5 2.5 3.1 3.1 3.5 3.5 3.4 4.0 4.2 3.9 3.2 6.1 6.6 6.1 7.4 7.4 6.8 9.2 9.6 10.6 10.9 7.2 9.3 10.9 12.7 15.7 13.6 12.0 5.7 8.7 8.3 5.9 6.7 4.7 4.9 7.8 4.6 2.4
3.8 3.3 3.1 3.8 4.3 4.2 4.9 5.3 6.6 5.0 5.3 8.2 10.2 10.2 11.6 10.9 13.1 11.1 8.0 9.1 9.3 6.9 8.5 10.3 14.0 18.3 20.2 9.6 5.1 5.7 9.9 10.1 7.5 7.2 5.6 6.2 5.9 3.1
2.8 3.1 3.0 3.5 4.8 6.2 5.6 8.2 8.0 8.3 9.0 9.4 10.2 10.5 12.6 14.3 12.9 10.3 8.3 10.0 10.0 7.6 7.3 8.8 10.1 13.3 22.8 16.3 14.1 5.0 6.7 10.1 11.8 9.1 6.2 4.3 4.8 1.1
3.5 5.3 4.5 3.6 5.8 6.3 8.3 10.1 10.2 10.9 10.6 11.8 10.7 10.3 10.2 14.3 12.4 8.2 9.0 7.4 9.9 9.1 9.6 5.0 3.8 8.3 13.2 18.5 18.8 7.8 8.5 7.5 7.3 13.2 10.0 11.9 6.0 3.9
3.8 5.2 4.8 5.3 7.1 9.0 10.2 11.6 11.9 10.4 9.9 8.6 7.8 8.2 9.1 11.5 13.1 10.4 8.9 11.2 7.8 6.0 6.3 5.0 7.4 9.9 12.0 14.7 11.0 6.0 6.6 6.7 8.7 4.5 4.5 11.1 18.8 17.8
6.4 7.6 6.9 9.2 9.6 11.1 11.7 11.8 10.5 8.4 7.1 8.0 8.0 7.4 9.2 12.4 8.5 8.8 9.6 8.8 8.5 10.3 7.2 8.0 7.7 7.7 9.3 9.4 10.3 9.0 6.9 7.0 6.3 5.9 6.1 4.1 3.5 2.2